Location: Cantaing
(50.1487°N, 3.1675°E)
Time: 14:55:33
(UTC+00:00)

Cosmos 1844 Rocket - Visible Passes

Search period start: 11 April 2026 00:00
Search period end: 21 April 2026 00:00
Orbit: 824 x 843 km, 71.0° (Epoch: 11 April)

Date Brightness Start Highest point End Pass type
(mag) Time Alt. Az. Time Alt. Az. Time Alt. Az.
11 Apr 5.4 20:20:20 10° WNW 20:22:18 12° W 20:24:17 10° WSW visible
12 Apr 5.4 20:02:15 10° WNW 20:04:47 13° W 20:07:18 10° WSW visible
13 Apr 5.4 19:44:18 10° WNW 19:47:15 15° W 19:50:12 10° SW visible
14 Apr 5.3 19:26:24 10° WNW 19:29:44 16° W 19:33:01 10° SW visible
